DW6218 Weather Reports


Display with metric or nautical units.
time (UTC)temp
F
wind
direction
speed
MPH
gust
MPH
rain 1hr
in
rain 24hr
in
rain mn
in
humidity
%
barometer
mb
20260505021541 55 345 0.0 0.0 0.01 0.01 0.01 73 1003.0
20260505020039 56 345 0.0 1.0 0.00 0.00 0.00 70 1003.4
20260505014538 57 345 0.0 0.0 0.00 0.00 0.00 66 1003.3
20260505013035 57 345 0.0 3.0 0.00 0.00 0.00 58 1003.2
20260505011537 57 344 0.0 6.0 0.00 0.00 0.00 57 1002.9
20260505010100 58 340 0.0 13.0 0.00 0.00 0.00 55 1002.5
20260505004534 58 248 0.0 2.0 0.00 0.00 0.00 54 1002.3
20260505003039 58 246 0.0 0.0 0.00 0.00 0.00 56 1002.2
20260505001532 58 246 0.0 0.0 0.00 0.00 0.00 57 1002.2
20260505000042 60 246 0.0 10.0 0.00 0.00 0.00 54 1002.3
20260504234530 64 218 0.0 11.0 0.00 0.00 0.00 39 1002.0
20260504233029 66 350 0.0 0.0 0.00 0.00 0.00 31 1001.5
20260504231528 66 351 0.0 0.0 0.00 0.00 0.00 30 1000.9
20260504230038 67 351 0.0 1.0 0.00 0.00 0.00 29 1000.5
20260504224528 68 351 0.0 4.0 0.00 0.00 0.00 29 1000.5
20260504223128 68 343 4.0 12.0 0.00 0.00 0.00 30 1000.5
20260504221539 68 355 4.0 14.0 0.00 0.00 0.00 30 1000.5
20260504220026 68 307 3.0 9.0 0.00 0.00 0.00 30 1000.8
20260504214526 68 300 1.0 8.0 0.00 0.00 0.00 30 1001.0
20260504213032 70 355 2.0 13.0 0.00 0.00 0.00 27 1001.2
20260504211527 71 5 5.0 16.0 0.00 0.00 0.00 26 1000.8
20260504210023 74 355 13.0 21.0 0.00 0.00 0.00 24 1000.6
20260504204528 72 341 9.0 18.0 0.00 0.00 0.00 27 1000.4
20260504203022 70 360 9.0 20.0 0.00 0.00 0.00 26 1000.5
20260504201524 71 327 10.0 22.0 0.00 0.00 0.00 25 1000.4
20260504200019 71 341 8.0 17.0 0.00 0.00 0.00 23 1000.2
20260504194524 73 342 6.0 18.0 0.00 0.00 0.00 22 1000.3
20260504193018 74 342 11.0 24.0 0.00 0.00 0.00 20 1000.0
20260504191527 75 5 7.0 20.0 0.00 0.00 0.00 18 999.4
20260504190016 75 338 3.0 16.0 0.00 0.00 0.00 19 999.5
20260504184518 75 348 0.0 15.0 0.00 0.00 0.00 18 999.5
20260504183012 74 254 2.0 15.0 0.00 0.00 0.00 20 999.4
20260504181515 74 273 5.0 17.0 0.00 0.00 0.00 20 999.5
20260504180009 74 256 4.0 16.0 0.00 0.00 0.00 20 999.6
20260504174505 73 248 5.0 15.0 0.00 0.00 0.00 20 999.8
20260504173002 73 261 2.0 17.0 0.00 0.00 0.00 21 1000.1
20260504171600 71 273 1.0 10.0 0.00 0.00 0.00 21 1000.3
20260504081534 50 13 0.0 0.0 0.00 0.00 0.00 47 1002.9
20260504050006 59 69 0.0 5.0 0.00 0.00 0.00 34 1003.4
20260504044509 59 46 0.0 3.0 0.00 0.00 0.00 34 1003.3
20260504043007 60 71 0.0 5.0 0.00 0.00 0.00 33 1003.6
20260504041508 61 75 0.0 11.0 0.00 0.00 0.00 32 1003.9
20260504040013 62 54 0.0 5.0 0.00 0.00 0.00 30 1004.0
20260504034505 62 29 0.0 3.0 0.00 0.00 0.00 28 1003.7
20260504033004 63 308 1.0 10.0 0.00 0.00 0.00 29 1003.8
20260504031504 64 252 0.0 0.0 0.00 0.00 0.00 27 1003.2
20260504030007 65 252 0.0 0.0 0.00 0.00 0.00 26 1003.0
20260504024503 65 252 0.0 0.0 0.00 0.00 0.00 25 1003.0
20260504023003 67 252 0.0 0.0 0.00 0.00 0.00 23 1003.0